TimeCST,TemperatureF,Dew PointF,Humidity,Sea Level PressureIn,VisibilityMPH,Wind Direction,Wind SpeedMPH,Gust SpeedMPH,PrecipitationIn,Events,Conditions,WindDirDegrees,DateUTC
1:56 AM,54.9,41.9,62,29.88,10.0,SSW,9.2,21.9,N/A,,Mostly Cloudy,200,2013-03-05 07:56:00
2:56 AM,54.0,43.0,66,29.86,10.0,South,9.2,-,N/A,,Scattered Clouds,190,2013-03-05 08:56:00
3:56 AM,54.0,43.9,69,29.86,10.0,SSW,6.9,-,N/A,,Overcast,210,2013-03-05 09:56:00
4:56 AM,52.9,48.9,86,29.86,4.0,SSW,10.4,-,0.03,Rain,Rain,210,2013-03-05 10:56:00
5:03 AM,53.6,50.0,88,29.83,5.0,SSW,11.5,-,0.01,Rain,Light Rain,210,2013-03-05 11:03:00
5:33 AM,51.8,50.0,94,29.85,10.0,Calm,Calm,-,0.02,Rain,Light Rain,0,2013-03-05 11:33:00
6:56 AM,52.0,50.0,93,29.85,10.0,South,5.8,-,N/A,,Mostly Cloudy,190,2013-03-05 12:56:00
7:21 AM,53.6,51.8,94,29.82,10.0,South,6.9,-,N/A,,Overcast,190,2013-03-05 13:21:00
7:56 AM,54.0,52.0,93,29.81,10.0,South,9.2,-,0.00,Rain,Light Rain,180,2013-03-05 13:56:00
8:56 AM,55.9,52.9,89,29.80,10.0,SSW,5.8,-,0.00,,Overcast,200,2013-03-05 14:56:00
9:29 AM,55.4,53.6,94,29.77,1.8,SSW,9.2,-,0.03,Rain,Rain,200,2013-03-05 15:29:00
9:46 AM,55.4,53.6,94,29.76,3.0,SSW,9.2,-,0.05,Rain,Light Rain,200,2013-03-05 15:46:00
9:56 AM,55.9,54.0,93,29.79,2.5,South,11.5,-,0.08,Rain,Light Rain,190,2013-03-05 15:56:00
10:07 AM,55.4,53.6,94,29.75,3.0,SSW,11.5,20.7,0.02,Rain,Light Rain,200,2013-03-05 16:07:00
10:56 AM,56.8,54.9,93,29.76,3.0,SSW,9.2,-,0.03,Rain,Light Rain,210,2013-03-05 16:56:00
11:09 AM,57.2,55.4,94,29.72,4.0,SSW,9.2,-,0.01,Rain,Light Rain,200,2013-03-05 17:09:00
11:15 AM,55.4,55.4,100,29.70,2.5,SSW,10.4,-,0.01,Rain,Rain,200,2013-03-05 17:15:00
11:22 AM,57.2,55.4,94,29.70,3.0,SSW,5.8,-,0.02,Rain,Light Rain,200,2013-03-05 17:22:00
11:32 AM,55.4,55.4,100,29.72,3.0,SW,9.2,-,0.02,Rain,Light Rain,230,2013-03-05 17:32:00
11:34 AM,55.4,55.4,100,29.73,1.0,WSW,10.4,-,0.04,Rain-Thunderstorm,Light Thunderstorms and Rain,240,2013-03-05 17:34:00
11:41 AM,55.4,55.4,100,29.71,0.8,SW,9.2,-,0.14,Rain-Thunderstorm,Heavy Thunderstorms and Rain,230,2013-03-05 17:41:00
11:56 AM,55.9,54.9,96,29.75,3.0,WNW,12.7,-,0.19,Rain,Rain,300,2013-03-05 17:56:00
11:59 AM,55.4,55.4,100,29.72,2.0,NW,10.4,-,0.01,Rain,Heavy Rain,310,2013-03-05 17:59:00
12:18 PM,55.4,53.6,94,29.71,3.0,West,10.4,21.9,0.04,Rain,Rain,270,2013-03-05 18:18:00
12:56 PM,55.9,54.0,93,29.70,6.0,WNW,10.4,-,0.06,Rain,Light Rain,290,2013-03-05 18:56:00
1:27 PM,53.6,51.8,94,29.72,6.0,NW,18.4,28.8,0.03,Rain,Rain,310,2013-03-05 19:27:00
1:56 PM,48.9,46.9,93,29.78,9.0,NW,24.2,34.5,0.06,Rain,Light Rain,310,2013-03-05 19:56:00
1:58 PM,48.2,46.4,93,29.74,8.0,NW,20.7,34.5,0.00,,Overcast,310,2013-03-05 19:58:00
2:49 PM,44.6,39.2,81,29.82,10.0,NW,27.6,34.5,0.00,,Overcast,310,2013-03-05 20:49:00
2:56 PM,43.9,39.9,86,29.87,10.0,NW,18.4,33.4,0.00,,Overcast,310,2013-03-05 20:56:00
3:56 PM,37.9,34.0,86,29.94,10.0,NW,20.7,34.5,N/A,,Overcast,320,2013-03-05 21:56:00
4:56 PM,37.9,32.0,79,29.99,10.0,NW,23.0,29.9,N/A,,Overcast,310,2013-03-05 22:56:00
5:56 PM,37.9,31.1,76,30.02,10.0,WNW,17.3,25.3,N/A,,Overcast,300,2013-03-05 23:56:00
6:41 PM,37.4,30.2,75,30.00,10.0,NW,15.0,-,N/A,,Overcast,320,2013-03-06 00:41:00
6:56 PM,37.9,31.1,76,30.03,10.0,NW,10.4,-,N/A,,Overcast,310,2013-03-06 00:56:00
7:56 PM,37.9,32.0,79,30.03,10.0,NNW,6.9,-,0.00,,Overcast,330,2013-03-06 01:56:00
8:18 PM,37.4,30.2,75,29.99,10.0,WNW,18.4,-,N/A,,Overcast,300,2013-03-06 02:18:00
8:56 PM,37.9,27.1,65,30.02,10.0,WNW,13.8,-,N/A,,Overcast,300,2013-03-06 02:56:00
9:38 PM,35.6,26.6,70,30.01,10.0,NW,17.3,25.3,0.00,Rain,Light Rain,310,2013-03-06 03:38:00
9:56 PM,34.9,25.2,68,30.06,10.0,NNW,20.7,29.9,0.00,,Mostly Cloudy,330,2013-03-06 03:56:00
10:56 PM,34.0,21.0,59,30.06,10.0,NW,18.4,26.5,N/A,,Mostly Cloudy,310,2013-03-06 04:56:00
11:56 PM,32.9,24.1,70,30.06,10.0,NW,12.7,-,0.00,Rain,Light Rain,310,2013-03-06 05:56:00